Date,TemperatureHighF,TemperatureAvgF,TemperatureLowF,DewpointHighF,DewpointAvgF,DewpointLowF,HumidityHigh,HumidityAvg,HumidityLow,PressureMaxIn,PressureMinIn,WindSpeedMaxMPH,WindSpeedAvgMPH,GustSpeedMaxMPH,PrecipitationSumIn
2012-1-1,56.3,41.9,28.8,43.7,29.6,18.2,92,64,36,30.30,30.02,17,7,41,0.13
2012-1-2,28.8,18.7,9.2,22.3,11.5,4.0,87,73,62,30.26,30.07,20,12,46,0.00
2012-1-3,12.0,9.6,8.4,6.3,4.9,3.7,85,80,75,30.53,30.25,16,8,40,0.00
2012-1-4,34.0,25.4,9.5,19.1,6.7,-7.7,82,47,23,30.59,30.22,19,8,44,0.00
2012-1-5,40.1,33.5,27.2,23.1,20.6,16.5,82,60,42,30.30,30.16,26,10,53,0.00
2012-1-6,50.5,44.9,37.3,29.8,22.3,16.1,57,41,28,30.26,30.09,20,12,42,0.00
2012-1-7,48.7,45.4,42.4,44.0,41.7,29.8,95,87,68,30.23,30.03,18,10,40,0.02
2012-1-8,44.5,41.0,36.4,40.8,38.4,33.9,97,90,83,30.38,30.22,6,1,19,0.12
2012-1-9,45.0,39.7,34.0,44.5,38.6,33.2,98,96,90,30.36,30.17,17,5,37,0.40
2012-1-10,46.7,39.8,31.8,38.0,28.3,22.2,89,64,40,30.26,30.12,12,2,34,0.00
2012-1-11,42.6,40.1,37.4,41.3,38.8,34.4,100,95,75,30.12,29.67,7,2,21,1.44
2012-1-12,44.4,37.1,19.1,42.1,36.1,17.4,98,96,83,29.75,29.60,18,7,51,0.66
2012-1-13,19.1,14.5,12.8,16.4,12.3,10.7,92,90,87,30.26,29.69,23,15,51,0.00
2012-1-14,25.7,19.8,14.1,24.5,15.7,9.9,95,84,65,30.40,30.26,23,12,47,0.00
2012-1-15,28.7,23.8,20.3,24.4,19.2,15.3,95,83,57,30.71,30.33,16,6,36,0.03
2012-1-16,36.0,29.9,22.2,26.5,22.2,15.3,81,73,64,30.71,30.48,3,2,16,0.01
2012-1-17,50.5,44.1,35.0,47.2,37.7,24.9,96,78,60,30.48,30.02,9,5,31,0.67
2012-1-18,40.6,24.7,17.9,34.5,20.2,14.7,89,83,72,30.28,30.05,11,4,28,0.00
2012-1-19,37.5,28.7,17.5,22.7,17.3,6.2,89,63,46,30.35,30.25,10,3,27,0.00
2012-1-20,43.3,36.8,33.9,37.1,31.7,22.7,96,82,61,30.31,30.19,21,6,46,0.34
2012-1-21,46.5,41.2,33.9,45.5,40.1,32.9,98,96,88,30.25,30.03,8,2,24,1.12
2012-1-22,38.6,34.8,31.5,37.6,34.1,30.7,98,97,97,30.43,30.25,5,1,15,0.01
2012-1-23,49.8,41.7,35.0,49.5,40.5,34.5,99,96,88,30.38,30.08,12,4,36,0.73
2012-1-24,46.3,41.2,36.4,41.4,32.9,24.5,88,74,44,30.41,30.14,16,9,42,0.00
2012-1-25,53.7,46.3,36.2,33.9,22.7,2.4,72,43,15,30.46,30.30,3,1,12,0.00
2012-1-26,55.6,48.6,40.6,51.4,44.7,33.9,97,86,75,30.30,29.77,10,4,30,0.02
2012-1-27,52.3,39.5,31.3,50.6,36.5,24.2,96,89,67,30.14,29.67,17,8,38,0.25
2012-1-28,39.1,33.0,25.2,33.8,22.8,10.1,100,68,31,30.41,30.14,14,7,34,0.01
2012-1-29,35.3,27.9,20.1,15.0,12.3,7.4,71,52,34,30.53,30.38,22,9,47,0.00
2012-1-30,45.3,35.8,27.5,23.6,19.7,15.0,64,52,41,30.59,30.39,21,6,46,0.00
2012-1-31,54.6,45.1,38.8,28.1,23.3,17.1,58,43,31,30.51,30.36,16,7,39,0.00
2012-2-1,48.1,46.5,40.9,46.9,39.7,20.2,98,81,34,30.36,30.17,10,4,32,0.52
2012-2-2,47.3,42.7,34.1,44.6,36.4,27.0,98,79,54,30.47,30.12,17,8,38,0.12
2012-2-3,48.1,38.8,32.6,26.1,22.8,13.6,73,53,38,30.63,30.47,4,1,14,0.00
2012-2-4,47.5,43.5,39.1,46.7,39.2,26.4,98,86,60,30.49,30.15,8,3,31,0.46
2012-2-5,47.3,42.4,32.8,46.8,40.2,31.1,98,92,76,30.28,30.09,8,4,26,0.23
2012-2-6,40.9,34.3,30.1,40.0,32.5,27.6,98,93,82,30.39,30.28,9,3,28,0.01
2012-2-7,48.4,36.0,27.1,27.3,21.8,11.1,85,57,37,30.37,30.31,4,1,17,0.00
2012-2-8,35.1,30.6,24.5,29.9,25.2,16.3,93,81,47,30.35,30.25,10,4,29,0.05
2012-2-9,36.6,27.0,19.9,26.3,22.3,17.7,93,83,65,30.48,30.34,5,2,20,0.01
2012-2-10,40.8,32.0,24.5,29.3,25.8,21.9,90,79,53,30.38,30.04,10,3,25,0.00
2012-2-11,29.4,17.6,6.2,27.4,14.4,2.7,95,87,75,30.28,29.93,22,12,49,0.01
2012-2-12,21.7,12.8,4.6,12.5,6.7,0.3,85,76,67,30.53,30.27,20,9,51,0.00
2012-2-13,40.6,27.3,14.4,19.6,13.4,7.2,85,58,36,30.55,30.30,9,2,24,0.00
2012-2-14,36.7,32.8,29.3,35.7,28.2,17.6,96,84,57,30.28,30.13,15,3,33,0.03
2012-2-15,54.8,41.0,29.7,33.4,29.2,26.4,96,66,35,30.45,30.24,14,3,33,0.00
2012-2-16,45.3,42.2,40.2,44.4,37.7,28.6,97,85,58,30.40,30.15,9,3,28,0.35
2012-2-17,45.0,39.0,34.4,37.1,31.0,22.7,90,74,52,30.29,30.19,7,4,22,0.00
2012-2-20,38.0,30.4,20.0,26.2,20.1,11.9,93,67,41,30.52,30.14,7,2,18,0.42
2012-2-21,45.1,34.9,24.4,33.2,27.2,18.5,85,74,61,30.49,30.13,8,3,25,0.00
2012-2-22,47.1,39.7,34.0,41.0,31.9,24.7,96,76,44,30.13,29.73,17,8,40,0.91
2012-2-23,61.0,50.2,41.5,48.5,43.9,37.6,94,80,49,29.82,29.66,13,7,32,0.14
2012-2-24,62.6,52.4,35.2,50.8,44.4,24.6,93,75,57,29.76,29.60,17,10,49,0.08
2012-2-25,26.4,24.2,21.2,19.9,16.4,12.9,81,72,64,30.53,30.10,15,10,40,0.00
2012-2-26,44.3,31.8,19.7,22.6,15.7,1.6,73,53,31,30.66,30.53,3,1,14,0.00
2012-2-27,49.8,40.2,28.9,40.1,30.2,18.1,85,68,51,30.59,30.50,11,3,25,0.00
2012-2-28,57.4,47.4,39.1,39.0,33.4,26.8,82,59,38,30.57,30.39,6,2,19,0.00
2012-2-29,59.0,50.8,43.3,52.9,48.3,39.0,97,91,80,30.39,29.87,10,4,30,0.50
2012-3-1,54.6,49.3,43.2,51.0,33.4,25.1,93,57,32,30.03,29.87,19,13,41,0.51
2012-3-2,55.3,48.0,40.5,50.6,36.9,24.3,94,67,43,30.08,29.77,8,2,27,0.02
2012-3-3,52.9,39.8,34.1,48.4,31.4,20.0,97,74,45,29.93,29.70,21,7,40,0.48
2012-3-4,34.9,26.8,23.7,21.9,19.0,15.7,87,73,56,30.15,29.86,11,7,30,0.00
2012-3-5,28.9,25.8,20.4,27.7,21.1,14.4,95,83,66,30.66,30.05,18,10,47,0.00
2012-3-6,47.4,38.3,23.0,27.5,18.3,-0.1,62,45,21,30.83,30.74,7,2,20,0.00
2012-3-7,53.3,43.0,32.6,41.5,33.7,20.1,84,70,59,30.76,30.56,9,4,23,0.00
2012-3-8,54.3,48.4,41.4,47.1,43.6,39.5,96,84,66,30.56,30.26,9,4,25,0.37
2012-3-9,47.4,38.7,31.0,43.7,28.9,21.0,93,70,46,30.49,30.22,8,3,27,0.14
2012-3-10,49.9,37.9,27.3,24.0,16.7,-3.4,72,43,22,30.68,30.49,8,2,17,0.00
2012-3-11,56.7,44.7,32.8,32.3,25.3,18.3,61,47,35,30.70,30.57,4,2,15,0.00
2012-3-12,57.7,48.4,39.3,48.0,42.1,28.7,92,79,63,30.57,30.36,5,2,16,0.00
2012-3-13,63.2,55.6,49.2,50.0,47.8,43.2,94,77,48,30.37,30.26,11,6,26,0.00
2012-3-14,67.3,58.4,50.5,49.1,45.4,38.3,86,64,35,30.38,30.29,8,3,19,0.00
2012-3-15,63.7,57.7,51.9,54.1,46.7,36.6,84,67,50,30.39,30.32,8,3,23,0.00
2012-3-16,63.0,56.6,52.5,52.7,48.7,45.2,82,75,69,30.33,30.27,15,7,30,0.21
2012-3-17,59.7,56.3,52.2,53.5,50.2,46.0,90,80,73,30.36,30.30,4,1,10,0.00
2012-3-18,62.8,53.7,49.4,51.6,50.3,48.3,96,89,65,30.42,30.33,3,0,14,0.07
2012-3-19,69.5,63.1,51.0,50.9,46.9,42.0,95,57,45,30.35,30.25,6,3,17,0.01
2012-3-20,69.4,62.0,54.7,54.6,51.2,48.6,94,69,51,30.32,30.22,6,2,13,0.05
2012-3-21,66.2,56.6,51.0,57.1,52.7,49.0,96,87,66,30.38,30.28,4,1,12,0.33
2012-3-22,65.7,58.6,51.3,55.8,52.9,50.2,96,82,66,30.37,30.26,5,1,13,0.01
2012-3-23,65.2,58.1,53.8,55.6,52.2,49.7,88,81,70,30.27,30.17,2,0,10,0.00
2012-3-24,59.4,51.8,44.3,54.2,49.3,40.9,98,91,77,30.04,29.87,10,3,31,0.94
2012-3-25,50.1,46.9,43.2,47.3,44.2,40.5,94,90,82,30.06,29.86,12,6,33,0.53
2012-3-26,56.6,49.7,43.8,46.5,42.4,28.7,90,77,55,30.25,30.04,17,6,38,0.01
2012-3-27,59.5,46.8,35.2,37.8,29.0,9.4,69,51,25,30.41,30.25,4,1,13,0.00
2012-3-28,65.7,57.0,42.7,52.8,46.4,35.2,80,68,52,30.36,30.03,18,10,40,0.00
2012-3-29,63.8,57.7,51.3,52.5,42.1,35.2,85,58,39,30.08,29.96,12,7,34,0.00
2012-3-30,66.0,56.5,51.1,49.8,42.5,36.0,81,60,50,30.12,29.97,8,2,20,0.00
2012-3-31,61.4,54.4,49.7,51.0,48.8,46.1,94,82,62,29.96,29.88,10,5,27,0.08
2012-4-1,60.3,56.4,47.6,52.4,43.2,30.6,90,64,36,30.01,29.87,22,7,42,0.00
2012-4-2,64.4,58.1,53.3,55.4,49.6,32.6,95,75,40,30.04,29.79,15,6,38,0.20
2012-4-3,71.1,58.3,49.2,58.3,46.7,31.7,92,66,49,30.11,29.97,12,3,27,0.06
2012-4-4,68.1,59.9,53.3,55.4,49.9,44.7,94,70,57,29.98,29.78,13,5,35,0.10
2012-4-5,62.1,50.8,40.6,55.1,47.5,38.7,98,89,72,29.89,29.77,7,3,21,0.25
2012-4-6,52.9,44.0,37.8,38.8,32.6,24.2,96,67,39,30.28,29.90,11,5,24,0.00
2012-4-7,56.9,45.5,35.3,24.9,19.4,8.4,51,36,24,30.41,30.29,5,2,18,0.00
2012-4-8,58.4,50.4,45.1,39.5,26.0,17.3,51,39,29,30.33,30.14,14,7,38,0.00
2012-4-9,56.4,48.2,39.4,32.6,27.2,18.9,54,44,35,30.17,30.02,13,8,34,0.00
2012-4-10,52.7,46.9,39.9,31.2,25.2,17.6,49,43,30,30.05,29.94,20,13,46,0.00
2012-4-11,38.7,32.3,28.0,21.8,19.1,16.5,68,58,48,30.35,30.00,15,6,39,0.00
2012-4-12,51.9,38.2,27.3,27.5,22.7,18.7,75,55,35,30.46,30.34,6,3,20,0.00
2012-4-13,56.1,45.7,37.9,30.8,26.8,23.9,58,48,34,30.43,30.32,10,3,20,0.00
2012-4-14,64.4,51.4,40.7,44.3,36.1,28.4,73,56,46,30.44,30.30,4,2,16,0.00
2012-4-15,73.7,60.4,48.7,55.0,47.2,40.8,86,64,33,30.33,30.20,6,3,24,0.00
2012-4-16,73.5,62.2,51.1,52.9,51.3,49.1,93,70,46,30.24,30.16,10,4,24,0.00
2012-4-17,64.8,55.2,46.3,54.5,48.0,40.1,88,77,51,30.32,30.21,10,4,26,0.68
2012-4-18,48.3,44.1,41.3,47.0,43.2,40.5,98,97,86,30.32,30.22,7,4,14,0.91
2012-4-19,57.7,49.5,43.3,50.9,46.8,42.8,98,91,72,30.26,30.16,5,2,15,0.01
2012-4-20,61.2,52.2,45.0,51.9,48.8,44.2,98,89,69,30.16,29.99,4,1,12,0.00
2012-4-21,62.9,53.8,47.2,51.4,49.3,43.9,96,86,63,30.00,29.83,13,2,31,0.02
2012-4-22,47.2,41.2,31.5,44.8,39.5,30.0,97,94,90,29.86,29.69,10,4,30,0.15
2012-4-23,38.8,31.7,27.7,29.8,26.3,20.8,94,82,48,29.85,29.68,12,8,40,0.05
2012-4-24,46.0,24.2,40.2,30.8,-29.1,-99.9,59,30,44,29.96,29.88,13,-438,41,0.00
2012-4-25,57.5,14.6,46.4,49.2,-59.8,-99.9,97,22,72,30.08,29.95,4,-707,14,0.01
2012-4-26,57.5,18.9,55.6,55.7,-48.5,-99.9,97,31,81,29.97,29.85,11,-663,33,0.13
2012-4-27,61.7,53.9,47.8,52.0,41.4,30.2,92,66,35,30.23,29.97,9,4,24,0.19
2012-4-28,62.0,52.8,46.3,50.9,41.9,31.1,90,67,49,30.29,30.18,3,1,14,0.00
2012-4-29,73.0,63.2,54.5,58.1,54.1,51.0,88,74,51,30.30,30.21,8,4,29,0.00
2012-4-30,72.9,62.2,55.6,62.6,58.3,54.3,98,88,57,30.28,30.16,3,1,20,0.39
2012-5-1,74.0,64.4,56.7,59.4,55.7,51.0,98,76,45,30.22,30.14,10,3,25,0.01
2012-5-2,76.5,67.2,58.2,61.3,57.9,55.3,92,73,50,30.22,30.14,11,4,30,0.00
2012-5-3,73.9,65.9,60.8,61.7,56.7,46.4,87,73,51,30.23,30.16,8,2,21,0.17
2012-5-4,70.7,63.5,59.4,59.6,56.7,52.3,92,79,63,30.17,30.04,15,6,32,0.00
2012-5-5,63.8,60.9,57.8,59.3,56.8,53.6,95,86,76,30.06,29.98,9,4,27,0.05
2012-5-6,68.0,60.8,55.3,59.7,56.7,53.6,97,87,71,30.16,30.06,7,3,16,0.01
2012-5-7,64.0,58.6,55.3,59.4,56.3,54.6,98,92,80,30.13,30.04,4,1,12,0.00
2012-5-8,65.9,58.2,55.5,61.1,56.1,53.0,98,93,80,30.08,29.95,8,3,26,0.65
2012-5-9,56.0,53.3,50.3,54.4,51.3,43.4,97,93,76,30.01,29.85,9,1,23,0.31
2012-5-10,53.9,50.1,45.7,42.6,38.6,36.2,83,65,52,30.16,29.98,9,6,29,0.00
2012-5-11,62.0,50.9,39.8,43.8,37.3,31.9,77,61,43,30.38,30.17,6,2,22,0.00
2012-5-12,61.7,54.5,47.3,52.9,47.6,41.4,93,78,63,30.46,30.36,2,1,11,0.00
2012-5-13,56.0,52.5,49.7,52.4,50.5,48.1,97,93,84,30.39,30.23,4,2,19,0.19
2012-5-14,59.0,55.0,51.5,57.7,54.1,51.0,99,97,91,30.23,30.07,3,1,11,0.93
2012-5-15,67.2,57.5,52.6,59.1,55.3,52.1,100,93,69,30.13,30.07,3,1,11,0.21
2012-5-16,67.4,59.7,52.4,57.0,51.5,47.5,97,76,52,30.12,30.05,5,2,16,0.00
2012-5-17,68.3,61.7,55.5,54.4,51.1,47.2,93,69,57,30.16,30.07,8,3,16,0.10
2012-5-18,64.2,56.7,51.3,57.9,54.2,50.5,98,92,78,30.25,30.14,6,2,16,0.13
2012-5-19,66.4,58.4,48.1,54.3,48.1,37.1,95,70,45,30.30,30.23,6,2,16,0.00
2012-5-20,67.8,60.0,51.2,51.7,47.6,43.9,83,65,43,30.29,30.19,7,3,18,0.00
2012-5-21,68.4,59.9,53.3,58.9,53.0,49.5,93,79,52,30.19,30.00,5,1,16,0.46
2012-5-22,61.7,55.9,52.3,56.1,52.7,49.7,94,89,78,30.04,29.96,3,1,12,0.16
2012-5-23,61.8,57.1,54.1,58.2,55.0,52.9,97,93,83,30.08,29.96,3,1,11,0.60
2012-5-24,65.9,61.7,55.3,60.7,58.4,54.3,98,89,76,30.18,30.07,3,1,9,0.00
2012-5-25,73.0,68.7,61.8,62.4,58.0,54.2,86,70,53,30.27,30.18,4,1,16,0.01
2012-5-26,74.2,68.3,60.8,62.9,59.4,55.9,90,74,57,30.28,30.19,6,2,20,0.00
2012-5-27,73.2,67.8,62.3,63.1,61.3,59.3,95,80,63,30.25,30.17,5,2,13,0.00
2012-5-28,73.9,69.5,62.6,64.6,62.3,59.6,94,78,68,30.18,30.09,2,1,11,0.00
2012-5-29,72.1,65.0,59.0,64.8,61.2,58.4,98,88,75,30.06,29.93,6,1,20,0.58
2012-5-30,70.8,64.3,57.1,58.1,53.3,48.1,98,70,47,29.97,29.92,7,4,25,0.01
2012-5-31,72.0,65.4,58.2,62.0,54.4,50.1,86,68,54,30.00,29.92,8,2,20,0.02
2012-6-1,60.8,58.1,55.5,57.6,56.2,53.8,97,93,88,29.95,29.85,4,2,13,0.05
2012-6-2,55.6,48.8,44.3,44.7,42.4,40.1,88,79,64,30.10,29.93,7,3,23,0.00
2012-6-3,63.2,55.8,46.7,54.1,48.4,41.2,82,76,69,30.12,30.00,9,4,30,0.01
2012-6-4,65.3,58.4,53.1,53.5,51.3,49.5,89,78,62,30.01,29.85,9,3,25,0.00
2012-6-5,60.5,54.7,48.7,50.7,47.7,43.5,94,78,60,30.01,29.86,4,1,15,0.04
2012-6-6,57.5,51.2,48.7,52.4,49.8,48.2,98,95,80,30.17,30.00,4,1,10,0.29
2012-6-7,62.6,56.1,47.5,54.5,49.7,46.1,98,80,64,30.22,30.17,2,1,12,0.01
2012-6-8,67.3,62.8,55.9,52.8,47.9,45.6,75,59,48,30.23,30.14,5,2,18,0.00
2012-6-9,72.8,63.6,53.9,58.6,52.7,46.9,86,69,48,30.22,30.13,5,1,17,0.00
2012-6-10,67.3,61.7,56.9,58.4,55.7,51.8,91,81,66,30.26,30.16,2,1,14,0.00
2012-6-11,65.0,61.0,57.2,64.0,60.1,55.4,98,97,91,30.25,30.11,3,1,12,0.34
2012-6-12,73.1,65.3,59.6,65.9,62.1,59.0,99,90,73,30.10,29.99,4,2,15,0.06
2012-6-13,70.2,65.2,60.2,60.5,56.5,52.4,91,74,56,30.14,30.03,7,3,22,0.00
2012-6-14,68.0,60.5,52.1,59.8,54.2,49.1,90,80,68,30.30,30.14,4,2,12,0.00
2012-6-15,67.6,60.2,54.5,58.7,55.6,53.6,97,85,66,30.35,30.27,6,2,15,0.00
2012-6-16,68.3,61.1,53.6,59.2,55.8,52.4,96,83,71,30.40,30.28,3,1,13,0.00
2012-6-17,70.8,60.7,52.3,63.9,56.7,49.8,96,87,73,30.30,30.14,3,1,13,0.00
2012-6-18,74.9,64.8,56.8,64.6,60.2,56.0,97,86,66,30.21,30.13,5,1,18,0.00
2012-6-19,74.6,66.8,59.7,65.3,60.4,57.2,96,81,64,30.29,30.20,2,0,9,0.00
2012-6-20,77.4,69.7,63.0,66.4,62.2,56.8,88,78,67,30.30,30.19,5,1,13,0.00
2012-6-21,75.7,69.8,63.5,66.4,62.6,57.7,91,78,61,30.20,30.04,4,1,14,0.00
2012-6-22,76.1,68.8,63.0,64.9,60.7,56.7,89,76,62,30.07,29.96,6,2,16,0.03
2012-6-23,73.8,67.4,59.6,60.1,57.3,53.7,94,71,53,30.14,30.01,6,2,13,0.01
2012-6-24,73.5,66.3,62.4,64.8,62.0,59.4,94,86,74,30.14,30.03,4,0,11,0.05
2012-6-25,74.8,67.9,61.0,61.7,59.1,54.4,96,74,56,30.04,29.87,6,2,20,0.00
2012-6-26,68.3,59.9,50.9,52.7,45.8,40.4,80,61,42,30.05,29.88,8,4,19,0.00
2012-6-27,74.7,62.7,53.3,53.1,46.5,43.5,70,57,41,30.16,30.05,8,3,20,0.00
2012-6-28,81.2,71.6,59.8,59.0,52.8,45.6,66,52,40,30.14,30.02,14,5,34,0.00
2012-6-29,88.3,80.9,76.5,66.7,60.5,54.1,58,50,44,30.04,29.89,17,10,38,0.00
2012-6-30,88.0,80.0,67.2,69.7,63.2,57.4,77,57,43,29.99,29.91,9,3,21,0.00
2012-7-1,82.0,77.8,73.0,65.6,60.1,56.6,65,55,47,30.04,29.97,5,3,15,0.00
2012-7-2,77.0,68.1,56.9,66.8,60.2,54.3,95,77,58,30.16,30.05,11,4,31,0.59
2012-7-3,79.8,71.4,62.2,67.5,62.0,53.9,85,73,56,30.15,30.04,10,4,32,0.32
2012-7-4,78.2,72.8,67.4,68.6,63.5,56.4,85,73,63,30.12,30.05,7,3,19,0.00
2012-7-5,79.9,73.7,68.0,68.4,64.5,60.9,82,73,65,30.10,30.04,8,3,19,0.00
2012-7-6,79.9,73.6,69.2,67.5,63.6,56.9,86,71,62,30.11,30.05,8,3,21,0.00
2012-7-7,83.0,75.2,67.8,70.3,66.8,64.4,90,76,57,30.12,30.05,2,0,10,0.00
2012-7-8,84.0,76.6,70.8,69.4,66.4,63.6,84,71,54,30.08,29.95,10,4,26,0.00
2012-7-9,76.8,70.3,64.3,67.1,63.8,59.5,91,80,67,30.05,29.96,4,1,19,0.24
2012-7-10,68.6,64.5,62.3,65.7,62.9,61.4,98,95,83,30.12,30.03,4,0,13,0.96
2012-7-11,62.2,61.5,60.6,61.6,60.7,59.7,98,97,96,30.24,30.20,4,2,10,0.30
2012-7-19,77.2,68.7,61.4,67.9,63.5,55.6,95,84,68,30.16,30.05,7,2,31,0.07
2012-7-20,72.4,67.4,62.8,65.2,62.2,57.7,96,84,72,30.07,29.99,10,3,27,0.01
2012-7-21,77.8,69.1,63.4,66.8,63.8,61.7,96,84,65,30.17,30.05,4,2,17,0.00
2012-7-22,75.0,68.1,63.7,68.4,64.9,62.2,96,90,78,30.30,30.17,6,2,20,0.05
2012-7-23,75.9,69.8,63.1,66.9,64.3,56.9,96,83,69,30.29,30.15,12,5,27,0.01
2012-7-24,72.5,68.5,62.4,67.6,64.8,59.7,96,88,76,30.16,29.97,17,7,37,1.01
2012-7-25,76.5,69.5,63.2,70.3,66.6,60.8,98,91,80,30.09,30.01,8,4,42,0.41
2012-7-26,76.7,72.5,69.8,67.9,66.9,65.4,89,83,74,30.03,29.98,11,9,33,0.00
2012-7-28,75.8,69.3,63.7,64.5,60.8,55.7,90,75,65,30.11,30.04,8,5,25,0.00
2012-7-29,73.0,66.5,57.6,63.1,58.8,54.7,91,77,63,30.15,30.08,6,1,16,0.00
2012-7-30,75.8,67.4,62.3,65.7,61.7,58.4,92,82,65,30.14,30.06,3,1,12,0.05
2012-7-31,72.4,64.8,60.7,66.2,62.3,59.6,97,92,81,30.12,30.00,3,1,12,0.33
2012-8-1,76.1,67.9,58.8,65.2,60.4,54.5,92,78,62,30.06,29.98,4,1,15,0.05
2012-8-2,78.7,69.2,60.9,66.3,61.8,57.8,96,79,57,30.06,29.98,6,2,18,0.00
2012-8-3,75.4,67.8,63.8,68.8,64.8,58.6,96,90,78,30.16,30.03,3,0,11,0.01
2012-8-4,74.4,67.3,64.0,67.0,64.0,61.0,97,90,74,30.28,30.14,3,1,14,0.02
2012-8-5,76.0,67.0,62.8,67.9,63.9,61.4,96,90,76,30.31,30.25,2,1,11,0.00
2012-8-18,67.3,61.4,56.4,59.4,57.7,54.4,96,88,73,30.08,29.99,4,1,12,0.01
2012-8-19,66.9,60.4,55.9,61.0,58.0,52.8,97,92,80,30.05,29.96,7,1,17,0.28
2012-8-20,67.9,60.6,54.7,57.2,54.4,51.2,98,81,58,30.12,29.98,5,2,17,0.00
2012-8-21,70.6,61.2,53.1,56.2,51.6,45.9,85,71,46,30.22,30.12,4,1,12,0.00
2012-8-22,68.9,61.1,55.7,59.7,56.1,51.9,95,84,70,30.27,30.19,3,1,11,0.01
2012-8-23,70.4,61.9,54.8,60.9,57.1,51.9,96,85,65,30.30,30.24,3,0,11,0.05
2012-8-24,69.7,61.5,55.8,61.3,57.8,53.3,97,88,70,30.29,30.24,4,1,11,0.10
2012-8-25,69.9,63.0,54.9,60.4,55.7,50.3,92,78,61,30.31,30.24,6,1,14,0.00
2012-8-26,73.0,65.9,55.9,60.1,56.9,51.5,94,74,56,30.30,30.23,7,2,18,0.00
2012-8-27,75.0,67.7,59.0,63.9,60.9,57.6,95,79,64,30.27,30.15,2,1,10,0.01
2012-8-28,78.7,68.2,60.1,65.1,58.9,46.6,89,73,56,30.17,30.05,3,1,13,0.00
2012-8-29,75.9,70.1,63.8,62.3,59.0,55.4,93,69,56,30.12,30.06,6,2,14,0.00
2012-8-30,75.7,69.3,63.3,68.1,65.2,61.8,97,87,74,30.26,30.12,4,1,11,0.01
2012-8-31,79.0,72.6,65.1,66.6,65.2,62.6,92,78,65,30.33,30.23,5,2,16,0.01
2012-9-1,74.1,69.8,65.3,67.4,64.7,60.9,93,84,75,30.26,30.16,5,1,15,0.00
2012-9-2,74.5,69.2,65.2,68.2,65.4,62.5,95,88,77,30.18,30.04,3,1,13,0.03
2012-9-4,66.9,64.3,62.6,66.3,63.8,62.0,99,98,98,30.09,30.02,4,1,12,0.07
2012-9-5,73.2,66.3,63.6,68.4,65.2,63.0,99,96,84,30.05,29.97,2,0,9,1.41
2012-9-6,73.4,67.2,63.8,65.8,63.5,61.9,98,89,73,30.08,29.98,6,2,19,0.09
2012-9-7,75.6,67.8,61.8,65.3,62.4,60.0,96,84,60,30.09,29.96,3,1,10,0.01
2012-9-8,69.8,61.3,50.1,62.9,58.2,48.2,97,90,72,29.99,29.83,13,3,32,0.13
2012-9-9,61.9,54.7,48.0,51.5,47.6,41.6,93,78,61,30.18,29.99,5,2,18,0.00
2012-9-10,63.9,56.9,49.3,52.1,48.8,45.7,91,74,63,30.31,30.17,6,3,17,0.00
2012-9-11,66.1,56.5,49.5,56.4,49.7,41.7,94,78,65,30.44,30.31,4,1,14,0.00
2012-9-12,67.6,59.5,52.7,57.7,54.4,51.3,96,84,60,30.48,30.40,6,1,14,0.01
2012-9-13,66.7,59.6,52.9,55.2,51.3,47.9,92,75,52,30.48,30.39,3,1,10,0.00
2012-9-14,69.9,60.0,51.8,56.8,52.8,45.7,91,78,60,30.43,30.32,4,1,14,0.00
2012-9-15,66.7,61.0,56.3,58.9,56.0,52.9,93,84,73,30.33,30.24,5,1,14,0.00
2012-9-16,62.7,59.1,56.9,60.9,57.9,55.0,98,96,92,30.26,30.17,1,0,7,0.00
2012-9-17,60.4,58.0,54.8,59.3,57.1,53.7,98,97,95,30.21,30.00,1,0,10,0.67
2012-9-18,61.4,58.7,56.0,61.1,58.1,54.6,99,98,94,29.97,29.78,8,3,30,4.40
2012-9-19,61.1,54.0,43.5,51.1,48.6,42.2,95,82,57,30.28,30.13,4,1,11,0.00
2012-9-20,65.7,56.2,51.1,56.9,52.7,49.9,98,89,65,30.28,30.18,3,1,14,0.00
2012-9-21,67.6,58.9,52.4,57.5,54.2,51.6,97,85,64,30.22,30.10,4,2,19,0.01
2012-9-22,66.5,58.5,52.5,57.3,53.5,42.7,95,84,67,30.15,30.03,8,4,27,0.01
2012-9-23,57.0,50.7,44.1,42.6,37.0,31.5,86,61,41,30.31,30.15,7,3,19,0.00
2012-9-24,61.7,50.1,42.0,43.8,39.0,33.6,88,67,42,30.39,30.31,5,2,16,0.00
2012-9-25,63.5,52.8,43.8,50.7,44.2,34.4,94,74,47,30.39,30.32,9,2,23,0.01
2012-9-26,70.8,62.5,52.4,58.5,54.4,50.0,94,76,62,30.34,30.29,7,3,24,0.00
2012-9-27,68.6,61.8,56.1,57.5,54.8,50.8,93,78,65,30.32,30.23,5,2,19,0.00
2012-9-28,64.8,60.5,56.6,59.2,56.4,52.9,95,87,75,30.24,30.12,10,4,29,0.26
2012-9-29,58.2,55.7,50.4,57.4,53.9,46.7,97,94,86,30.13,30.00,3,1,12,0.08
2012-9-30,60.5,52.5,43.8,50.1,43.8,36.8,90,73,52,30.07,30.00,4,1,16,0.00
2012-10-1,56.7,50.8,48.0,56.4,49.6,46.9,99,96,85,30.04,29.98,4,1,10,0.99
2012-10-2,65.9,59.6,54.4,64.8,58.5,53.8,99,96,80,30.09,29.95,6,3,22,0.78
2012-10-3,69.1,60.6,56.1,60.8,56.8,53.9,97,88,59,30.29,30.09,3,1,11,0.00
2012-10-4,63.3,56.0,51.4,54.9,51.1,48.3,96,84,65,30.37,30.28,7,2,21,0.00
2012-10-5,69.4,57.9,50.1,54.3,50.0,42.9,92,76,47,30.36,30.15,3,1,14,0.00
2012-10-6,58.3,53.8,47.2,54.1,51.1,46.1,96,91,82,30.14,30.02,12,4,29,0.00
2012-10-7,47.3,42.3,34.6,46.2,40.8,31.8,98,95,83,30.30,30.09,5,1,21,0.34
2012-10-8,40.2,37.2,33.7,39.4,35.1,31.1,97,92,74,30.41,30.29,5,1,13,0.09
2012-10-9,52.0,45.0,40.1,49.0,43.3,39.3,98,94,81,30.36,30.24,3,1,9,0.01
2012-10-10,48.1,45.4,39.1,44.9,42.5,38.1,97,89,74,30.24,30.16,15,7,40,0.00
2012-10-11,59.9,52.0,43.1,45.1,37.1,31.4,72,57,42,30.45,30.37,3,1,12,0.00
2012-10-12,58.7,50.4,45.0,45.1,39.2,34.0,79,66,52,30.49,30.34,7,3,20,0.00
2012-10-13,55.1,45.3,36.2,44.5,38.7,28.6,93,79,62,30.58,30.47,3,1,12,0.00
2012-10-14,65.9,51.8,43.3,54.4,48.0,40.9,96,88,66,30.48,30.15,3,1,13,0.00
2012-10-15,57.2,52.1,43.4,53.4,47.2,37.6,97,84,64,30.14,29.91,13,4,31,0.41
2012-10-16,56.2,47.5,39.1,38.2,35.9,32.9,85,65,47,30.11,30.00,13,2,29,0.00
2012-10-17,59.8,50.8,44.1,43.6,37.9,29.5,83,62,40,30.12,30.01,7,1,16,0.00
2012-10-18,58.6,50.3,43.7,52.1,46.9,40.0,96,88,76,30.00,29.89,6,2,19,0.01
2012-10-19,58.2,48.6,38.5,45.8,34.8,29.7,95,61,35,29.92,29.81,7,3,23,0.00
2012-10-20,46.7,43.0,40.0,37.2,35.7,33.6,85,75,60,30.14,29.89,7,4,25,0.00
2012-10-21,57.6,46.1,37.2,40.4,36.8,34.0,89,71,46,30.33,30.15,8,4,24,0.00
2012-10-22,69.0,56.7,46.2,48.1,44.1,40.0,80,64,43,30.39,30.29,4,1,11,0.00
2012-10-23,68.7,59.3,52.7,49.8,46.2,43.1,73,63,46,30.30,30.21,5,2,16,0.00
2012-10-24,68.3,60.2,54.3,48.5,46.7,43.8,79,62,44,30.30,30.22,4,1,13,0.00
2012-10-25,67.3,59.0,53.3,51.1,46.5,42.5,85,64,44,30.26,30.20,4,1,14,0.00
2012-10-26,64.4,57.2,51.9,55.6,52.1,49.7,96,84,62,30.23,30.10,4,1,10,0.00
2012-10-27,60.5,52.7,45.9,53.3,49.4,43.7,95,89,71,30.10,29.91,8,3,22,0.00
2012-10-28,48.3,42.1,31.2,44.8,39.5,29.4,94,91,81,29.95,29.83,5,2,22,0.06
2012-10-29,31.3,28.9,26.3,29.0,26.7,24.8,94,92,89,29.88,29.65,19,8,45,0.03
2012-10-30,28.9,27.4,26.0,26.1,25.1,23.9,94,91,89,29.64,29.53,22,9,49,0.00
2012-10-31,28.9,28.8,28.7,27.3,27.2,27.1,94,94,93,29.89,29.86,17,16,38,0.00
2012-11-1,37.7,33.0,29.8,30.7,27.4,19.0,94,81,50,30.06,29.92,24,15,47,0.01
2012-11-2,44.8,39.6,35.6,33.3,27.8,19.0,72,63,53,30.13,29.99,17,10,44,0.00
2012-11-3,51.4,40.9,30.7,37.7,26.0,20.4,77,57,32,30.28,30.13,7,3,25,0.00
2012-11-4,46.7,43.1,37.8,42.7,38.4,34.0,94,84,78,30.22,30.12,4,2,14,0.04
2012-11-5,43.3,40.3,33.8,30.7,27.5,24.9,76,60,51,30.24,30.20,4,2,15,0.00
2012-11-6,32.1,29.5,27.8,27.0,25.4,24.1,87,84,81,30.26,30.14,1,0,10,0.00
2012-11-7,40.3,34.8,28.8,32.5,30.4,26.0,91,84,72,30.14,30.06,14,6,33,0.00
2012-11-8,43.0,37.0,33.4,30.5,25.0,17.8,83,63,41,30.33,30.13,19,8,41,0.00
2012-11-9,55.4,44.6,33.0,30.3,23.0,10.5,63,44,22,30.46,30.33,5,3,15,0.00
2012-11-10,65.3,54.5,45.6,35.5,22.6,5.4,51,30,15,30.49,30.41,4,1,10,0.00
2012-11-11,61.4,51.9,45.7,46.6,34.5,20.9,86,54,34,30.55,30.45,7,3,20,0.00
2012-11-12,55.7,50.9,40.5,51.1,48.2,39.2,97,91,79,30.48,30.27,9,4,23,0.30
2012-11-13,41.8,34.4,28.3,38.5,27.6,20.7,95,77,48,30.59,30.33,4,1,17,0.03
2012-11-14,40.9,34.7,27.0,28.7,26.9,23.0,86,73,59,30.65,30.55,7,2,12,0.00
2012-11-15,45.2,38.4,32.3,32.6,28.5,25.8,83,68,49,30.52,30.44,3,1,15,0.00
2012-11-16,48.0,40.6,32.6,26.7,21.2,10.3,77,48,27,30.56,30.45,8,3,18,0.00
2012-11-17,47.5,39.1,33.9,26.2,23.1,18.4,69,53,39,30.66,30.56,8,5,17,0.00
2012-11-18,43.1,36.7,31.1,37.0,30.6,16.8,92,80,48,30.68,30.59,8,5,19,0.00
2012-11-19,51.7,42.6,34.7,46.2,40.1,31.2,97,91,79,30.60,30.36,6,1,15,0.00
2012-11-20,52.0,44.5,39.1,39.6,33.7,29.1,92,67,44,30.36,30.21,4,1,17,0.00
2012-11-21,52.0,45.6,39.7,31.3,29.5,27.4,67,53,43,30.36,30.25,8,2,18,0.00
2012-11-22,55.8,48.0,40.3,31.8,28.5,23.4,60,47,39,30.40,30.30,4,1,14,0.00
2012-11-23,53.2,43.7,31.7,42.0,35.0,25.6,94,72,50,30.30,30.06,19,9,38,0.01
2012-11-24,31.7,24.8,19.6,25.5,18.5,12.9,85,77,66,30.30,30.05,10,4,30,0.00
2012-11-25,42.3,32.1,17.2,14.7,10.9,6.3,79,44,27,30.36,30.24,10,6,28,0.00
2012-11-26,51.1,43.2,35.6,32.8,24.2,13.1,67,47,37,30.36,30.26,16,4,39,0.00
2012-11-27,44.4,37.8,29.5,40.0,35.2,26.7,96,90,61,30.38,30.23,8,2,24,0.05
2012-11-28,37.4,30.5,25.7,27.6,23.3,19.7,90,75,52,30.58,30.37,5,2,19,0.00
2012-11-29,48.6,36.5,26.8,22.0,16.5,10.0,78,46,22,30.64,30.53,6,1,16,0.00
2012-11-30,55.6,44.5,34.3,31.1,24.4,13.5,70,47,30,30.55,30.41,7,2,17,0.00
2012-12-1,54.4,45.6,41.8,41.2,38.5,30.1,87,77,54,30.52,30.41,13,4,31,0.00
2012-12-2,58.3,47.6,38.3,45.6,41.0,36.2,93,79,58,30.49,30.38,10,3,25,0.00
2012-12-3,60.8,54.3,46.4,49.3,47.0,43.2,89,77,64,30.42,30.34,13,2,28,0.00
2012-12-4,57.9,51.3,45.5,47.2,44.8,41.7,89,79,67,30.42,30.28,5,2,18,0.00
2012-12-5,52.4,35.8,41.1,48.8,4.2,-99.9,96,56,29,30.34,30.22,10,-226,26,0.14
2012-12-6,40.4,11.4,36.5,35.2,-61.2,-99.9,87,23,73,30.36,30.29,2,-686,7,0.00
2012-12-7,53.6,8.8,51.3,48.7,-75.4,-99.9,90,14,77,30.32,30.06,3,-811,17,0.00
2012-12-8,57.1,16.6,49.6,48.0,-54.0,-99.9,91,25,66,30.12,30.02,8,-664,29,0.00
2012-12-9,62.3,21.3,49.8,51.2,-43.8,-99.9,92,29,67,30.19,30.02,5,-603,17,0.00
2012-12-10,52.2,12.6,49.6,49.7,-62.9,-99.9,96,23,88,30.02,29.76,11,-748,25,0.04
2012-12-11,34.4,12.0,29.4,30.4,-51.9,-99.9,91,32,82,30.32,29.81,6,-602,16,0.00
2012-12-12,32.1,9.5,28.4,27.4,-61.4,-99.9,85,24,37,30.50,30.32,5,-665,11,0.00
2012-12-13,41.9,14.3,32.2,25.1,-54.5,-99.9,54,18,31,30.58,30.46,6,-594,11,0.00
2012-12-14,52.7,18.4,36.9,29.1,-50.3,-99.9,58,17,32,30.51,30.32,3,-603,12,0.00
2012-12-15,51.7,15.1,43.4,28.6,-61.3,-99.9,52,12,30,30.33,30.12,2,-666,9,0.00
2012-12-16,49.6,10.2,47.8,48.3,-69.2,-99.9,96,20,95,30.12,29.98,4,-790,16,0.12
2012-12-17,47.3,12.1,44.8,44.6,-62.5,-99.9,94,24,87,29.98,29.75,3,-716,7,0.00
2012-12-18,37.6,9.9,35.0,32.5,-64.4,-99.9,86,22,78,30.07,29.73,15,-704,40,0.00
2012-12-19,48.7,17.6,38.8,34.8,-47.8,-99.9,81,24,47,30.24,30.06,21,-600,45,0.00
2012-12-20,-200.0,0.0,200.0,-99.9,-99.9,-99.9,0,0,100,30.24,29.48,2,-978,5,0.01
2012-12-21,20.2,11.3,19.3,18.0,-32.8,-99.9,92,52,90,29.98,29.40,25,-419,65,0.00
2012-12-22,39.8,30.4,22.7,14.2,7.5,-2.7,68,42,16,30.36,30.29,20,8,44,0.00
2012-12-23,41.8,34.1,23.1,36.5,23.2,10.7,96,66,46,30.34,30.20,13,6,36,0.00
2012-12-24,42.7,39.5,36.4,42.2,38.7,35.5,98,97,91,30.21,29.97,11,3,33,0.52
2012-12-25,41.4,37.4,34.4,37.4,34.6,31.5,96,90,85,30.22,30.05,14,3,34,0.04
2012-12-26,35.6,33.5,30.7,34.7,32.6,30.0,97,97,96,30.18,29.98,13,10,23,0.30
2012-12-27,30.7,23.6,20.9,29.4,22.2,19.5,96,94,93,30.29,29.79,0,0,0,0.02
2012-12-28,33.9,29.9,20.6,32.9,27.8,19.2,96,92,85,30.34,30.12,0,0,0,0.15
2012-12-29,31.7,27.4,20.1,30.7,25.9,17.9,96,94,91,30.12,29.84,19,5,44,0.02
2012-12-30,31.7,22.6,16.1,20.8,16.3,13.7,91,77,53,30.62,30.12,25,11,51,0.00
2012-12-31,39.5,35.4,30.5,20.3,11.3,4.7,65,38,26,30.59,30.26,13,8,32,0.01
2013-1-1,43.0,39.3,36.6,41.2,36.3,10.7,96,90,34,30.26,30.09,15,8,36,0.50